Weather History for Pine Ridge, SD

Change the Weather History Date:

Tuesday, February 25, 2014

  Actual Average Record
Temperature  
Mean Temperature 5 °F 29 °F  
Max Temperature 14 °F 43 °F 71 °F (1999)
Min Temperature -4 °F 16 °F -8 °F (2003)
Degree Days  
Heating Degree Days 60 36  
Month to date heating degree days 1149 969  
Since 1 July heating degree days 5334 5246  
Cooling Degree Days 0 0  
Month to date cooling degree days 0 0  
Year to date cooling degree days 0 0  
Moisture  
Dew Point 0 °F    
Average Humidity 74    
Maximum Humidity 87    
Minimum Humidity 61    
Precipitation  
Precipitation 0.02 in 0.02 in 0.10 in (1999)
Month to date precipitation 0.17 0.41  
Year to date precipitation 0.26 0.73  
Sea Level Pressure  
Sea Level Pressure 30.46 in    
Wind  
Wind Speed 6 mph (NNE)    
Max Wind Speed 16 mph    
Max Gust Speed 21 mph    
Visibility 8 miles    
Events Snow    
T = Trace of Precipitation, MM = Missing Value Source: NWS Daily Summary

Daily Weather History Graph

Daily Weather History Graph

Search for Another Location

Airport:

Trip Planner

Search our weather history database for the weather conditions in past years. The results will help you decide how hot, cold, wet, or windy it might be!

Date:

Astronomy

Feb. 25, 2014 Rise Set
Actual Time 6:32 AM MST 5:34 PM MST
Civil Twilight 6:03 AM MST 6:03 PM MST
Nautical Twilight 5:30 AM MST 6:35 PM MST
Astronomical Twilight 4:58 AM MST 7:08 PM MST
Moon 3:33 AM MST (2/25) 1:38 PM MST (2/25)
Length of Visible Light 11h 59m
Length of Day
11h 01m
Waning Crescent, 17% of the Moon is Illuminated
Feb 25
Waning Crescent
Mar 1
New
Mar 8
First Quarter
Mar 16
Full
Mar 23
Last Quarter

Hourly Weather History & Observations

Time (MST) Temp. Windchill Dew Point Humidity Pressure Visibility Wind Dir Wind Speed Gust Speed Precip Events Conditions
12:52 AM 6.1 °F -0.9 °F -2.0 °F 69% 30.44 in 10.0 mi South 3.5 mph - N/A   Partly Cloudy
1:52 AM 6.1 °F -2.8 °F -0.9 °F 73% 30.43 in 10.0 mi SE 4.6 mph - N/A   Mostly Cloudy
2:52 AM 7.0 °F -1.7 °F -0.9 °F 70% 30.40 in 10.0 mi ESE 4.6 mph - N/A   Scattered Clouds
3:52 AM 8.1 °F 1.4 °F -0.0 °F 70% 30.41 in 10.0 mi East 3.5 mph - N/A   Overcast
4:52 AM 9.0 °F -0.9 °F -0.0 °F 67% 30.40 in 10.0 mi ENE 5.8 mph - N/A   Overcast
5:52 AM 8.1 °F -4.3 °F 1.0 °F 73% 30.42 in 10.0 mi NE 8.1 mph - N/A   Overcast
6:52 AM 8.1 °F -5.3 °F -0.9 °F 67% 30.45 in 9.0 mi NE 9.2 mph - 0.01 in   Overcast
7:52 AM 7.0 °F -3.3 °F -0.9 °F 70% 30.48 in 4.0 mi ENE 5.8 mph - 0.00 in Snow Light Snow
8:41 AM 8.6 °F -2.6 °F -0.4 °F 67% 30.29 in 2.5 mi NE 6.9 mph - 0.00 in Snow Light Snow
8:49 AM 8.6 °F -2.6 °F -0.4 °F 67% 30.29 in 7.0 mi NE 6.9 mph - 0.00 in Snow Light Snow
8:52 AM 8.1 °F -3.2 °F -0.0 °F 70% 30.51 in 8.0 mi ENE 6.9 mph - 0.00 in Snow Light Snow
9:52 AM 9.0 °F 2.4 °F 1.9 °F 73% 30.52 in 10.0 mi NE 3.5 mph - 0.00 in   Overcast
10:31 AM 10.4 °F 2.2 °F 1.4 °F 67% 30.33 in 2.0 mi NNE 4.6 mph - 0.00 in Snow Light Snow
10:52 AM 10.0 °F 0.4 °F 1.9 °F 70% 30.54 in 2.5 mi North 5.8 mph - 0.01 in Snow Light Snow
11:19 AM 10.4 °F - 3.2 °F 73% 30.35 in 1.5 mi Calm Calm - 0.00 in Snow Light Snow
11:28 AM 10.4 °F 0.8 °F 3.2 °F 73% 30.34 in 3.0 mi NNW 5.8 mph - 0.00 in Snow Light Snow
11:52 AM 12.9 °F 0.7 °F 1.9 °F 62% 30.54 in 9.0 mi North 9.2 mph - 0.00 in Snow Light Snow
12:52 PM 12.9 °F -1.6 °F 1.9 °F 62% 30.51 in 10.0 mi North 12.7 mph 19.6 mph 0.00 in   Mostly Cloudy
1:44 PM 12.2 °F -1.0 °F 3.2 °F 67% 30.31 in 10.0 mi North 10.4 mph 16.1 mph 0.00 in   Mostly Cloudy
1:52 PM 12.9 °F 1.6 °F 3.0 °F 65% 30.51 in 10.0 mi NNW 8.1 mph - 0.00 in   Mostly Cloudy
2:14 PM 12.2 °F -1.0 °F 1.4 °F 62% 30.32 in 10.0 mi North 10.4 mph - N/A   Scattered Clouds
2:52 PM 12.0 °F -2.0 °F 1.0 °F 61% 30.53 in 10.0 mi NNW 11.5 mph - N/A   Partly Cloudy
3:52 PM 12.0 °F 2.7 °F 1.0 °F 61% 30.54 in 10.0 mi NW 5.8 mph - N/A   Overcast
4:52 PM 10.9 °F -0.8 °F -0.0 °F 61% 30.55 in 10.0 mi NNW 8.1 mph - N/A   Overcast
5:52 PM 10.9 °F 1.4 °F -0.0 °F 61% 30.58 in 10.0 mi North 5.8 mph - N/A   Overcast
6:52 PM 10.0 °F - 1.0 °F 67% 30.59 in 10.0 mi Calm Calm - N/A   Overcast
7:52 PM 10.0 °F - 1.0 °F 67% 30.58 in 10.0 mi Calm Calm - N/A   Overcast
8:52 PM 8.1 °F - 1.0 °F 73% 30.57 in 10.0 mi Calm Calm - N/A   Overcast
9:52 PM -2.0 °F -12.2 °F -7.1 °F 79% 30.56 in 10.0 mi South 4.6 mph - N/A   Clear
10:52 PM -4.0 °F -12.4 °F -8.0 °F 83% 30.53 in 10.0 mi West 3.5 mph - N/A   Clear
11:52 PM -2.9 °F -15.0 °F -7.1 °F 82% 30.47 in 10.0 mi West 5.8 mph - N/A   Clear